sat.trackr.live / text

‹ back to catalog

STARLINK-34313

NORAD 64166 · 2025-112W

PAYLOAD ACTIVE UNKNOWN

§ Identity

Operator
Country
US
Launch date
2025-05-27
Launch site
AFWTR
Launch vehicle
Mass (kg)
RCS (m²)

Purposes: comms

External: N2YO · Heavens-Above · Gunter

§ Orbital elements

Epoch: 2026-09-20T13:30:07.260192Z

Period
93.91 min
Inclination
97.2842°
Eccentricity
0.0002475
Mean motion
15.33453732 rev/d
Perigee alt
463.8 km
Apogee alt
467.2 km
Semi-major
6,843.7 km
B*
6.4147e-4
RAAN
310.5771°
Arg perigee
56.2491°
Mean anomaly
303.8987°
Rev number
7,275

§ Raw data

STARLINK-343131 64166U 25112W   26263.56258403  .00020698  00000+0  64147-3 0  99952 64166  97.2842 310.5771 0002475  56.2491 303.8987 15.33453732 72751

JSON: /api/v1/satellites/64166 · /tle

For live sub-satellite position, see the globe view (requires WebGL).

§ Visibility from observer

Set your observer location to see the next 7 days of passes ≥ 10°. The values pass through the URL so the page stays shareable.

No JS? Fill the form by hand. The geolocation button needs JavaScript.